カタログに戻る

STARLINK-35945

運用中通信VLEO
NORAD 66925·PAYLOAD·🇺🇸 United States

打ち上げ Dec 7, 2025 から Vandenberg Space Force Base

Loading…

次のパス (今後24時間)

TLE

最新Source: CelesTrak SupGP

元期: Sep 15, 2026, 02:48 UTC

1 66925C 25286A   26258.11715278 -.00047352  00000+0 -13991-2 0  2581
2 66925  53.1589 195.0940 0001402  79.2816  82.0448 15.34413219    19

AllMySatでSTARLINK-35945をリアルタイム追跡

Download on the App Store